This demonstration page uses our WeatherBlox Daily Observations layout. Learn more.

Left ArrowRight Arrow

44.8408, -93.29828

Hourly Observations for March 23, 2015

Temp ( °F °C ) Dew Point ( °F °C ) Humidity (%) Winds ( mph kmh ) Pressure ( in mb ) Visibility ( mi km ) Precip ( " mm )
12:08 am 00:08 Cloudy with Light Snow 28 -2 28 -2 100 100 ENE 6 9 30.33 1027 2 2 0.00 0.00
12:22 am 00:22 Cloudy with Light Snow 28 -2 28 -2 100 100 NE 5 7 30.33 1027 2 3 0.00 0.00
12:31 am 00:31 Cloudy with Light Snow 29 -1.7 28 -2.2 96 96 ENE 6 9 30.33 1027 2 3 0.00 0.03
12:38 am 00:38 Cloudy with Light Snow 29 -1.7 28 -2.2 96 96 ENE 7 11 30.33 1027 3 5 0.01 0.25
12:53 am 00:53 Cloudy with Light Snow 30 -1.1 28 -2.2 92 92 E 8 13 30.29 1026 5 8 0.01 0.25
1:26 am 01:26 Cloudy with Light Snow 30 -1 28 -2 93 93 E 8 13 30.30 1026 3 4 0.00 0.00
1:46 am 01:46 Cloudy with Light Snow 30 -1 28 -2 93 93 ENE 7 11 30.30 1026 2 3 0.00 0.00
1:53 am 01:53 Cloudy with Light Snow 30 -1.1 28 -2.2 92 92 ENE 7 11 30.29 1026 2 3 0.00 0.03
2:10 am 02:10 Cloudy with Light Snow 30 -1.1 28 -2.2 92 92 ENE 7 11 30.30 1026 2 3 0.01 0.25
2:53 am 02:53 Cloudy with Light Snow 30 -1.1 28 -2.2 92 92 ENE 8 13 30.29 1026 3 4 0.01 0.25
3:42 am 03:42 Cloudy with Mist and Fog 30 -1.1 28 -2.2 92 92 NE 7 11 30.27 1025 4 6 0.01 0.25
3:53 am 03:53 Cloudy with Light Snow 30 -1.1 28 -2.2 92 92 NE 7 11 30.28 1026 4 6 0.01 0.25
4:03 am 04:03 Cloudy with Light Snow 30 -1 28 -2 93 93 ENE 7 11 30.27 1025 2 3 0.00 0.00
4:23 am 04:23 Cloudy with Light Snow 30 -1.1 28 -2.2 92 92 ENE 7 11 30.27 1025 2 3 0.00 0.03
4:34 am 04:34 Cloudy with Light Snow 30 -1 28 -2 93 93 NE 8 13 30.27 1025 2 2 0.00 0.00
4:46 am 04:46 Cloudy with Light Snow 30 -1 28 -2 93 93 ENE 9 15 30.27 1025 3 5 0.00 0.00
4:53 am 04:53 Cloudy with Mist and Fog 30 -1.1 28 -2.2 92 92 ENE 9 15 30.28 1025 6 10 0.00 0.03
5:53 am 05:53 Cloudy 30 -1.1 27 -2.8 88 88 E 12 19 30.28 1025 10 16 0.01 0.25
6:53 am 06:53 Cloudy 30 -1.1 27 -2.8 88 88 ENE 10 17 30.27 1025 10 16 0.00 0.00
7:27 am 07:27 Cloudy 30 -1.1 26 -3.3 85 85 E 9 15 30.27 1025 10 16 0.00 0.00
7:53 am 07:53 Cloudy 30 -1.1 26 -3.3 85 85 E 10 17 30.29 1026 9 14 0.00 0.00
8:14 am 08:14 Cloudy 30 -1 27 -3 86 86 ESE 14 22 30.30 1026 9 14 0.00 0.00
8:53 am 08:53 Cloudy 30 -1.1 26 -3.3 85 85 ESE 12 19 30.30 1026 9 14 0.00 0.00
9:12 am 09:12 Cloudy 30 -1 27 -3 86 86 E 16 26 30.30 1026 10 16 0.00 0.00
9:53 am 09:53 Cloudy 30 -1.1 26 -3.3 85 85 ESE 12 19 30.32 1027 9 14 0.00 0.00
10:24 am 10:24 Cloudy 30 -1 27 -3 86 86 ESE 10 17 30.30 1026 9 14 0.00 0.00
10:53 am 10:53 Cloudy 31 -0.6 26 -3.3 82 82 ESE 10 17 30.31 1026 9 14 0.00 0.00
11:03 am 11:03 Cloudy 30 -1 27 -3 86 86 ESE 10 17 30.30 1026 9 14 0.00 0.00
11:53 am 11:53 Cloudy 30 -1 27 -3 86 86 ESE 8 13 30.30 1026 8 13 0.00 0.00
12:53 pm 12:53 Cloudy 32 0 26 -3.3 79 79 SE 12 19 30.31 1026 10 16 0.00 0.00
1:53 pm 13:53 Cloudy 32 0 25 -3.9 75 75 SE 8 13 30.31 1026 10 16 0.00 0.00
2:53 pm 14:53 Cloudy 32 0 25 -3.9 75 75 SSE 10 17 30.28 1025 10 16 0.00 0.00
3:53 pm 15:53 Cloudy 32 0 25 -3.9 75 75 SE 12 19 30.26 1025 10 16 0.00 0.00
4:53 pm 16:53 Cloudy 32 0 25 -3.9 75 75 SE 9 15 30.25 1025 9 14 0.00 0.00
5:53 pm 17:53 Cloudy 32 0 25 -3.9 75 75 SE 7 11 30.27 1025 9 14 0.00 0.00
6:53 pm 18:53 Cloudy 32 0 25 -3.9 75 75 SE 10 17 30.26 1025 8 13 0.00 0.00
7:53 pm 19:53 Cloudy 32 0 25 -3.9 75 75 SE 9 15 30.27 1025 9 14 0.00 0.00
8:53 pm 20:53 Cloudy 31 -0.6 25 -3.9 79 79 SE 8 13 30.27 1025 9 14 0.00 0.00
9:53 pm 21:53 Cloudy 31 -0.6 25 -3.9 79 79 SE 8 13 30.27 1025 9 14 0.00 0.00
10:53 pm 22:53 Cloudy 31 -0.6 25 -3.9 79 79 SE 13 20 30.26 1025 10 16 0.00 0.00
11:53 pm 23:53 Cloudy 31 -0.6 25 -3.9 79 79 SSE 10 17 30.26 1025 10 16 0.00 0.00

Powered by AerisWeather